Regional Weather Roundup
Issued by NWS

Home | Current Version | Previous Version | Graphics & Text | Print | Product List | Glossary On
Versions: 1 2 3 4 5 6 7 8 9 10 11 12 13 14 15 16 17 18 19 20 21 22 23 24 25 26 27 28 29 30 31 32 33 34 35 36 37 38 39 40 41 42 43 44 45 46 47 48 49 50
000
ASUS43 KMKX 300121
RWRWI

WISCONSIN REGIONAL WEATHER ROUNDUP
NATIONAL WEATHER SERVICE MILWAUKEE/SULLIVAN WI
800 PM CDT FRI AUG 29 2014

NOTE: "FAIR" INDICATES FEW OR NO CLOUDS BELOW 12,000 FEET WITH NO
SIGNIFICANT WEATHER AND/OR OBSTRUCTIONS TO VISIBILITY.

WIZ001-002-006>008-014>016-023>028-300200-
NORTHWEST WISCONSIN

CITY           SKY/WX    TMP DP  RH WIND       PRES   REMARKS
SUPERIOR ARPT  CLOUDY    62  61  98 CALM      29.78R
ASHLAND        CLOUDY    67  65  93 CALM      29.78R FOG
HAYWARD        RAIN      66  65  96 S3        29.79R FOG
SIREN          DRIZZLE   67  67  97 CALM      29.78R
RICE LAKE      LGT RAIN  65  63  94 CALM      29.82R
LADYSMITH      CLOUDY    66  65  96 E3        29.79F
EAU CLAIRE     RAIN      69  69 100 S9        29.77S FOG
MENOMONIE      RAIN      68  67  94 W3        29.79R
NEW RICHMOND   RAIN      67  66  97 N3        29.77S
OSCEOLA        DRIZZLE   69  69 100 E3        29.79S
$$

WIZ003>005-009-010-017-018-300200-
NORTH CENTRAL WISCONSIN

CITY           SKY/WX    TMP DP  RH WIND       PRES   REMARKS
WOODRUFF       RAIN      65  63  93 S5        29.83F
RHINELANDER    LGT RAIN  66  63  90 SW5       29.86R
EAGLE RIVER    RAIN      64  61  88 SW5       29.84S
LAND O LAKES   TSTM      67  66  95 S6        29.84R
PHILLIPS       LGT RAIN  64  64  98 SE6       29.80F
TOMAHAWK       HVY RAIN  64  63  95 CALM      29.86F
MEDFORD        TSTM      64  63  97 SE6       29.83F
MERRILL        TSTM      67  66  98 CALM      29.86R
$$

WIZ029-030-035-036-043>047-300200-
CENTRAL WISCONSIN

CITY           SKY/WX    TMP DP  RH WIND       PRES   REMARKS
WAUSAU         MOCLDY    70  63  78 NW15G29   29.82R
MOSINEE        MOCLDY    70  64  83 NW16G24     N/A
MARSHFIELD     LGT RAIN  67  64  90 NW16      29.80S FOG
STEVENS POINT  MOCLDY    72  69  91 S3        29.81R
WAUPACA        MOCLDY    79  70  74 S9        29.81R HX  82
WAUTOMA        MOCLDY    78  71  79 SE7       29.80F HX  80
WISC RAPIDS    MOCLDY    77  71  82 S5        29.80S
CAMP DOUGLAS   MOCLDY    78  73  83 SE5       29.78S HX  81
$$

WIZ011>013-019>022-031-037>040-048>050-300200-
NORTHEAST WISCONSIN

CITY           SKY/WX    TMP DP  RH WIND       PRES   REMARKS
ANTIGO         HVY RAIN  67  66  97 W10G22    29.84R
STURGEON BAY   CLOUDY    70  66  88 S18       29.84S
GREEN BAY      MOCLDY    75  71  87 S8        29.82R
MANITOWOC      CLOUDY    70  68  93 S16       29.85S
APPLETON       CLOUDY    77  68  73 S10       29.83R
CLINTONVILLE   MOCLDY    77  68  73 S10       29.80R
OSHKOSH        PTCLDY    76  71  85 S7        29.82R
$$

WIZ032>034-041-042-053>061-300200-
SOUTHWEST WISCONSIN

CITY           SKY/WX    TMP DP  RH WIND       PRES   REMARKS
LA CROSSE      CLOUDY    72  68  87 SE7       29.76R
SPARTA         RAIN      70  67  89 NW9       29.81R
VIROQUA        FAIR      77  69  75 SW3       29.80R
BOSCOBEL       CLOUDY    82  68  62 S7        29.76F HX  85
PRAIRIE DU CHI CLOUDY    81  67  63 SE9       29.75F HX  83
PLATTEVILLE    CLOUDY    70  67  89 N6        29.82S
$$

WIZ056-057-062-063-064-067-068-300200-
SOUTH CENTRAL WISCONSIN

CITY           SKY/WX    TMP DP  RH WIND       PRES   REMARKS
BARABOO/DELLS  MOCLDY    78  69  74 S8        29.80F HX  80
LONE ROCK      CLOUDY    84  72  67 SE7       29.79S HX  89
WATERTOWN      CLEAR     76  72  88 S5        29.84S
MADISON        CLOUDY    80  70  71 S9        29.82S HX  83
MIDDLETON      FAIR      80  70  70 S9        29.83S HX  83
MONROE         PTCLDY    75  72  88 S8        29.83F
JANESVILLE     CLEAR     81  70  69 S10       29.84S HX  84
$$

WIZ051-052-058>065-066-070>072-300200-
SOUTHEAST WISCONSIN

CITY           SKY/WX    TMP DP  RH WIND       PRES   REMARKS
MILWAUKEE      PTCLDY    76  69  79 S14       29.87R
WAUKESHA       PTCLDY    75  70  83 SE8       29.87S
MILWAUKEE/TIMM CLEAR     75  68  78 SE9       29.87R
RACINE         PTCLDY    75  70  84 S14       29.89S
BURLINGTON     PTCLDY    73  69  89 CALM      29.87S
KENOSHA        PTCLDY    77  72  84 S20       29.88R
FOND DU LAC    PTCLDY    77  70  79 S8        29.83S
SHEBOYGAN      MOCLDY    73  70  90 S15       29.86S
WEST BEND      PTCLDY    73  68  83 SE5       29.85S
JUNEAU         CLEAR     76  70  81 SE8       29.85S
$$

LSZ147-162-300200-
LAKE SUPERIOR

STATION/POSITION TIME  TEMP    WIND        PRES    WAVE
                       AIR SEA DIR/SP/G            HT/PER
                 (UTC) (F)     (DEG/KT/KT) (MB)    (FT/S)
W MID LAKE BUOY  0050   60 56   CALM  /  2 1007.4F   1
DEVILS ISLAND    0100   61      CALM  /  1 1008.2R
PORT WING        0040   63      20/  6/  8 1008.1S
SAXON HARBOR     0000   65     290/  3/  4 1007.8S
$$

LMZ867-665-643>646-300200-
LAKE MICHIGAN

STATION/POSITION TIME  TEMP    WIND        PRES    WAVE
                       AIR SEA DIR/SP/G            HT/PER
                 (UTC) (F)     (DEG/KT/KT) (MB)    (FT/S)
N MID LAKE BUOY  0050   68 65  190/ 14/ 17 1010.1F   4/ 6
NORTHPORT PIER   0000   69     160/ 10/ 16 1010.2F
SISTER BAY       0041   70     180/ 22/ 28   N/A
KEWAUNEE LAKESHO 0100   66     180/ 13/ 15 1010.0S
SHEBOYGAN LAKESH 0100   69 68  180/ 14/ 14 1011.2S
ATWATER BUOY     0100   71     170/ 14/ 16 1012.4R
MILWAUKEE LAKESH 0100   72     160/ 14/ 15   N/A
S MID LAKE BUOY  0050   72 69  160/ 14/ 16 1012.1R   2/ 4
KENOSHA   LAKESH 0100   72     180/ 15/ 19 1011.2R
$$

TC  - TEMPERATURE IN CELSIUS
VSB - VISIBILITY IN STATUTE MILES
WCI - WIND CHILL INDEX
HX  - HEAT INDEX




USA.gov is the U.S. government's official web portal to all federal, state and local government web resources and services.